Location: Hurecourt
(47.9030°N, 6.0653°E)
Time: 10:45:19
(UTC+00:00)

Cosmos 1908 Rocket - Pass Details

Date: 14 July 2020
Orbit: 605 x 633 km, 82.5° (Epoch: 05 August)

Event Time Altitude Azimuth Distance (km) Brightness Sun altitude
Exits shadow 03:05:55 - 202° (SSW) 2,360 6.0 -6.8°
Reaches altitude 10° 03:06:48 10° 204° (SSW) 2,012 5.6 -6.7°
Maximum altitude 03:11:11 56° 283° (WNW) 760 3.8 -6.1°
Drops below altitude 10° 03:15:36 10° 2° (N) 2,022 6.9 -5.6°
Sets 03:17:53 0° 6° (N) 2,931 7.8 -5.3°
